Showing default

RCM 3, 44323

Orbit data source: Space-Track

RCM 3, 44323 is a payload satellite owned by CSA (CA) in SSO that was launched on Wed, 12 Jun 2019 UTC via an FALCON 9 launch vehicle from the Air Force Western Test Range (AFWTR). Payload-class satellites include a variety of spacecraft equipped with specific instruments for various scientific and technological missions. These include communications satellites like Starlink; space stations such as the ISS; scientific satellites like the Hubble; Earth observation satellites from companies like Planet Labs, Umbra, and HawkEye 360; GPS; miniature CubeSats for education and research; and military/defense satellites.

Loading next visibility...
Identifier
44323, 2019-033B
Orbit
SSO
Country
Flag of CACA
Related business
Manufacturer
BALM/MAXAR
Mission
Operational Civil Radar Imaging
Bus & Motor
MAC-200, Unknown motor
Mass
1,450 kg wet, ~1,400 kg dry
Launch date (UTC)
2019-06-12 (7 years ago)
Launch vehicle
FALCON 9
Launch site
Air Force Western Test Range (AFWTR)
Object type
Payload
Rocket body
Debris
Shape & HBR
Box + 2 Pan, 3.5 m
Radar Cross Section
10.097 m², Large (>1 m²)

Expand to show TLE details & history
Last TLE update: 22 hours ago

TLE from 22 hours ago
0 RCM 3
1 44323U 19033B   26172.51474964 -.00000008  00000-0  45934-5 0  9999
2 44323  97.7599 179.9934 0001495  90.7087 269.4303 14.92589641382746
Epoch: 2026-06-21T12:21Z
TLE epoch observation values (Epoch: 2026-06-21T12:21:14.368Z)
Latitude
-0.0001°
Longitude
84.96963°
Altitude
592.918 km
Speed
7.563 km/s
True Right ascension
11h 59m 58s
True Declination
0° 00' 00"
Sunlit
Object was in daylight at epoch
Visualization orbit readout
Latitude
Unknown
Longitude
Unknown
Altitude
Unknown
Speed
Unknown
Apparent Right ascension
Unknown
Apparent Declination
Unknown
Sunlit
N/A
Visualization observer readout
Local Sidereal Time
21:38:52
Azimuth
Unknown
Elevation
Unknown
Doppler factor
Unknown
Orbital elements
Apogee altitude
587.923 km
Perigee altitude
585.841 km
Semi-major axis
6,965.019 km
Eccentricity
0.00015
Inclination
97.7599°
RAAN
179.9934°
Arg. of periapsis
90.7087°
True anomaly
269.41317°
Mean anomaly
269.4303°
Eccentric anomaly
269.42173°
Mean motion
3.73387 °/min
Orbital period
96.41 mins
BSTAR
0.0000045934
Loading maneuver chart data...
Computing Atmospheric mass density...
Loading historical data...
Loading historical data...
Loading historical data...
Loading historical data...
Loading historical data...
Loading historical data...
Loading historical data...
Other satellites on launch #33 in the year 2019 (2019-06-12 UTC)

Documentation

Showing up to 5 results
|